Mackinac Island, MI

9:05 PM EDT on May 21, 2018 (GMT -0400)
Mackinac Island

Weather History for KMCD - November, 2011

Change the Weather History Date:

Sunday, November 20, 2011

  Actual Average Record
Temperature  
Mean Temperature 32 °F -  
Max Temperature 35 °F 38 °F 59 °F (1982)
Min Temperature 28 °F 30 °F 12 °F (1987)
Degree Days  
Heating Degree Days 34    
Moisture  
Dew Point 27 °F    
Average Humidity 84    
Maximum Humidity 100    
Minimum Humidity 64    
Precipitation  
Precipitation 0.19 in - - ()
Sea Level Pressure  
Sea Level Pressure 30.07 in    
Wind  
Wind Speed 9 mph (North)    
Max Wind Speed 18 mph    
Max Gust Speed 25 mph    
Visibility 9 miles    
Events Rain    
Averages and records for this station are not official NWS values.
T = Trace of Precipitation, MM = Missing Value Source: NWS Daily Summary

Daily Weather History Graph

Daily Weather History Graph

Search for Another Location

Airport or City:

Astronomy

Nov. 20, 2011 Rise Set
Actual Time 7:45 AM EST 5:02 PM EST
Civil Twilight 7:12 AM EST 5:35 PM EST
Nautical Twilight 6:35 AM EST 6:11 PM EST
Astronomical Twilight 6:00 AM EST 6:47 PM EST
Moon 1:57 AM EST (11/20) 2:04 PM EST (11/20)
Length of Visible Light 10h 23m
Length of Day
9h 17m
Waning Crescent, 27% of the Moon is Illuminated
Nov 20
Waning Crescent
Nov 25
New
Dec 2
First Quarter
Dec 10
Full
Dec 17
Last Quarter

Hourly Weather History & Observations

Time (EST) Temp. Windchill Dew Point Humidity Pressure Visibility Wind Dir Wind Speed Gust Speed Precip Events Conditions
12:14 AM 35.6 °F 30.7 °F 35.6 °F 100% 29.70 in 3.0 mi North 5.8 mph - N/A Rain Light Rain
12:33 AM 35.6 °F 29.9 °F 35.6 °F 100% 29.70 in 3.0 mi North 6.9 mph - 0.01 in   Overcast
12:53 AM 35.6 °F 28.6 °F 35.6 °F 100% 29.72 in 4.0 mi North 9.2 mph - 0.01 in Rain Light Rain
1:14 AM 33.8 °F 26.4 °F 33.8 °F 100% 29.73 in 5.0 mi North 9.2 mph - 0.01 in   Overcast
1:33 AM 33.8 °F 28.6 °F 33.8 °F 100% 29.75 in 7.0 mi NNW 5.8 mph - 0.02 in Rain Light Rain
1:53 AM 33.8 °F 27.0 °F 33.8 °F 100% 29.75 in 7.0 mi NNW 8.1 mph - 0.02 in Rain Light Rain
1:59 AM 33.8 °F 25.8 °F 33.8 °F 100% 29.76 in 7.0 mi NNW 10.4 mph - 0.02 in Rain Light Rain
2:14 AM 33.8 °F 25.8 °F 33.8 °F 100% 29.77 in 7.0 mi NNW 10.4 mph 16.1 mph 0.01 in   Overcast
2:33 AM 33.8 °F 24.8 °F 33.8 °F 100% 29.79 in 10.0 mi NNW 12.7 mph 19.6 mph 0.02 in   Overcast
2:53 AM 33.8 °F 24.3 °F 33.8 °F 100% 29.81 in 10.0 mi NNW 13.8 mph 19.6 mph 0.02 in   Overcast
2:59 AM 33.8 °F 24.3 °F 33.8 °F 100% 29.82 in 10.0 mi NNW 13.8 mph 23.0 mph 0.02 in   Overcast
3:14 AM 33.8 °F 23.9 °F 33.8 °F 100% 29.84 in 10.0 mi NNW 15.0 mph 21.9 mph 0.01 in   Overcast
3:33 AM 33.8 °F 25.8 °F 32.0 °F 93% 29.85 in 10.0 mi NNW 10.4 mph 20.7 mph 0.02 in   Overcast
3:54 AM 33.8 °F 25.3 °F 33.8 °F 100% 29.88 in 10.0 mi NNW 11.5 mph 18.4 mph 0.02 in   Overcast
3:59 AM 33.8 °F 25.3 °F 33.8 °F 100% 29.88 in 10.0 mi NNW 11.5 mph 19.6 mph 0.02 in   Overcast
4:13 AM 33.8 °F 25.8 °F 32.0 °F 93% 29.89 in 10.0 mi North 10.4 mph 21.9 mph 0.01 in   Overcast
4:33 AM 33.8 °F 23.5 °F 32.0 °F 93% 29.91 in 10.0 mi North 16.1 mph 23.0 mph 0.01 in   Overcast
4:54 AM 32.0 °F 20.5 °F 32.0 °F 100% 29.93 in 10.0 mi North 18.4 mph 25.3 mph 0.02 in   Overcast
4:59 AM 32.0 °F 21.6 °F 32.0 °F 100% 29.94 in 10.0 mi NNW 15.0 mph 25.3 mph 0.02 in   Overcast
5:14 AM 32.0 °F 23.0 °F 32.0 °F 100% 29.96 in 10.0 mi North 11.5 mph 21.9 mph 0.01 in   Overcast
5:33 AM 32.0 °F 21.6 °F 30.2 °F 93% 29.97 in 10.0 mi NNW 15.0 mph 24.2 mph 0.01 in   Overcast
5:54 AM 32.0 °F 21.6 °F 30.2 °F 93% 29.97 in 10.0 mi North 15.0 mph 23.0 mph 0.01 in   Overcast
5:59 AM 32.0 °F 21.6 °F 30.2 °F 93% 29.97 in 10.0 mi North 15.0 mph 21.9 mph 0.01 in   Overcast
6:13 AM 32.0 °F 23.6 °F 30.2 °F 93% 29.99 in 10.0 mi North 10.4 mph 20.7 mph 0.01 in   Overcast
6:33 AM 32.0 °F 24.2 °F 30.2 °F 93% 30.02 in 10.0 mi North 9.2 mph 18.4 mph 0.01 in   Overcast
6:54 AM 32.0 °F 23.6 °F 30.2 °F 93% 30.04 in 10.0 mi NNW 10.4 mph 16.1 mph 0.01 in   Overcast
6:59 AM 32.0 °F 23.0 °F 30.2 °F 93% 30.05 in 10.0 mi NNW 11.5 mph 18.4 mph 0.02 in   Overcast
7:54 AM 30.2 °F 21.9 °F 26.6 °F 86% 30.08 in 10.0 mi NNE 9.2 mph 17.3 mph 0.01 in   Overcast
7:59 AM 30.2 °F 20.8 °F 26.6 °F 86% 30.08 in 10.0 mi North 11.5 mph 17.3 mph 0.01 in   Overcast
8:13 AM 30.2 °F 21.9 °F 26.6 °F 86% 30.09 in 10.0 mi NNE 9.2 mph 16.1 mph N/A   Mostly Cloudy
8:33 AM 30.2 °F 22.6 °F 26.6 °F 86% 30.10 in 10.0 mi North 8.1 mph - N/A   Overcast
8:54 AM 30.2 °F 23.4 °F 26.6 °F 86% 30.11 in 10.0 mi NNE 6.9 mph - N/A   Overcast
8:59 AM 30.2 °F 20.8 °F 24.8 °F 80% 30.12 in 10.0 mi NNE 11.5 mph - 0.01 in   Overcast
9:13 AM 30.2 °F 22.6 °F 24.8 °F 80% 30.14 in 10.0 mi North 8.1 mph - N/A   Mostly Cloudy
9:33 AM 30.2 °F 25.4 °F 24.8 °F 80% 30.17 in 10.0 mi North 4.6 mph - N/A   Mostly Cloudy
9:54 AM 30.2 °F 25.4 °F 23.0 °F 75% 30.18 in 10.0 mi North 4.6 mph - N/A   Overcast
10:13 AM 30.2 °F 23.4 °F 23.0 °F 75% 30.20 in 10.0 mi NNE 6.9 mph - N/A   Overcast
10:33 AM 30.2 °F 24.3 °F 23.0 °F 75% 30.22 in 10.0 mi NNW 5.8 mph - 0.01 in   Overcast
10:54 AM 30.2 °F 25.4 °F 23.0 °F 75% 30.23 in 10.0 mi North 4.6 mph - 0.01 in   Overcast
10:59 AM 30.2 °F 24.3 °F 23.0 °F 75% 30.23 in 10.0 mi NNW 5.8 mph - 0.01 in   Overcast
11:13 AM 30.2 °F 23.4 °F 23.0 °F 75% 30.23 in 10.0 mi NNW 6.9 mph - N/A   Overcast
11:54 AM 32.0 °F 25.6 °F 23.0 °F 69% 30.23 in 10.0 mi North 6.9 mph - 0.01 in   Mostly Cloudy
11:59 AM 32.0 °F 24.8 °F 23.0 °F 69% 30.23 in 10.0 mi North 8.1 mph - 0.01 in   Mostly Cloudy
12:13 PM 32.0 °F 25.6 °F 23.0 °F 69% 30.23 in 10.0 mi North 6.9 mph - N/A   Mostly Cloudy
12:33 PM 30.2 °F 22.6 °F 24.8 °F 80% 30.23 in 10.0 mi NNW 8.1 mph - N/A   Overcast
12:54 PM 30.2 °F 22.6 °F 23.0 °F 75% 30.24 in 10.0 mi NNW 8.1 mph - N/A   Overcast
1:13 PM 30.2 °F 23.4 °F 24.8 °F 80% 30.24 in 10.0 mi North 6.9 mph - N/A   Overcast
1:33 PM 32.0 °F 28.7 °F 23.0 °F 69% 30.24 in 10.0 mi North 3.5 mph - N/A   Overcast
1:54 PM 32.0 °F 25.6 °F 23.0 °F 69% 30.25 in 10.0 mi North 6.9 mph - 0.01 in   Overcast
1:59 PM 32.0 °F 25.6 °F 23.0 °F 69% 30.25 in 10.0 mi North 6.9 mph - 0.01 in   Overcast
2:13 PM 32.0 °F 24.8 °F 23.0 °F 69% 30.25 in 10.0 mi North 8.1 mph - N/A   Overcast
3:13 PM 30.2 °F 22.6 °F 21.2 °F 69% 30.27 in 10.0 mi NNW 8.1 mph - N/A   Overcast
3:33 PM 30.2 °F 23.4 °F 21.2 °F 69% 30.27 in 10.0 mi North 6.9 mph - N/A   Overcast
3:53 PM 30.2 °F 24.3 °F 21.2 °F 69% 30.29 in 10.0 mi North 5.8 mph - N/A   Overcast
4:13 PM 30.2 °F 24.3 °F 21.2 °F 69% 30.30 in 10.0 mi North 5.8 mph - N/A   Overcast
4:53 PM 30.2 °F 24.3 °F 19.4 °F 64% 30.31 in 10.0 mi North 5.8 mph - 0.01 in   Overcast
4:59 PM 28.4 °F 24.6 °F 19.4 °F 69% 30.31 in 10.0 mi North 3.5 mph - 0.01 in   Overcast
5:13 PM 28.4 °F 22.2 °F 19.4 °F 69% 30.31 in 10.0 mi NNW 5.8 mph - N/A   Overcast
5:34 PM 28.4 °F 22.2 °F 21.2 °F 74% 30.32 in 10.0 mi North 5.8 mph - N/A   Overcast
5:53 PM 28.4 °F 23.3 °F 19.4 °F 69% 30.32 in 10.0 mi North 4.6 mph - N/A   Overcast
6:13 PM 28.4 °F 22.2 °F 19.4 °F 69% 30.33 in 10.0 mi North 5.8 mph - N/A   Overcast
6:34 PM 28.4 °F 23.3 °F 19.4 °F 69% 30.33 in 10.0 mi NNW 4.6 mph - N/A   Overcast
6:53 PM 28.4 °F 23.3 °F 19.4 °F 69% 30.33 in 10.0 mi NW 4.6 mph - 0.01 in   Overcast
6:59 PM 28.4 °F 21.2 °F 19.4 °F 69% 30.34 in 10.0 mi NW 6.9 mph - 0.01 in   Overcast
7:13 PM 28.4 °F - 19.4 °F 69% 30.34 in 10.0 mi Calm Calm - N/A   Overcast
7:34 PM 28.4 °F 21.2 °F 19.4 °F 69% 30.34 in 10.0 mi NNW 6.9 mph - N/A   Overcast
7:53 PM 28.4 °F 24.6 °F 19.4 °F 69% 30.35 in 10.0 mi NNW 3.5 mph - N/A   Overcast
8:13 PM 28.4 °F 22.2 °F 17.6 °F 64% 30.36 in 10.0 mi NNW 5.8 mph - N/A   Overcast
8:33 PM 26.6 °F 19.1 °F 19.4 °F 74% 30.36 in 10.0 mi NNW 6.9 mph - N/A   Overcast
8:53 PM 26.6 °F 20.0 °F 17.6 °F 69% 30.35 in 10.0 mi North 5.8 mph - N/A   Overcast
9:14 PM 26.6 °F 20.0 °F 17.6 °F 69% 30.35 in 10.0 mi North 5.8 mph - N/A   Overcast
9:34 PM 26.6 °F - 17.6 °F 69% 30.35 in 10.0 mi Calm Calm - N/A   Overcast
9:53 PM 26.6 °F - 17.6 °F 69% 30.35 in 10.0 mi Calm Calm - N/A   Overcast
10:14 PM 26.6 °F - 17.6 °F 69% 30.36 in 10.0 mi Calm Calm - N/A   Overcast
10:33 PM 26.6 °F 22.6 °F 17.6 °F 69% 30.36 in 10.0 mi North 3.5 mph - N/A   Overcast
10:53 PM 26.6 °F - 17.6 °F 69% 30.35 in 10.0 mi Calm Calm - N/A   Overcast
11:14 PM 26.6 °F - 17.6 °F 69% 30.36 in 10.0 mi Calm Calm - N/A   Mostly Cloudy
11:33 PM 26.6 °F - 17.6 °F 69% 30.36 in 10.0 mi Calm Calm - N/A   Overcast
11:53 PM 26.6 °F - 17.6 °F 69% 30.36 in 10.0 mi Calm Calm - N/A   Overcast